Home > Weather > Noumea > Past weeks

Flag for New Caledonia Past Weather in Noumea, New Caledonia, New Caledonia — Yesterday and Last 2 Weeks

Now
75 °F

Passing clouds.


Feels Like: 78 °F
Forecast: 64 / 77 °F
Wind: 12 mph from Southeast

Location: La Tontouta Nlle-Caledonie

Current Time: May 31, 2016 at 4:59:34 PM

Latest Report: May 31, 2016 at 4:30 PM


Visibility: N/A

Pressure: 30.07 "Hg

Humidity: 57%

Dew Point: 59 °F

Location of NoumeaLocation

Past Weather in Noumea — Graph

°F

Noumea Temperature Yesterday

Maximum temperature yesterday: 81 °F (at 10:00 AM)
Minimum temperature yesterday: 63 °F (at 1:00 AM)
Average temperature yesterday: 71 °F

High & Low Weather Summary for the Past Weeks

 TemperatureHumidityPressure
High88 °F (May 28, 11:00 AM)100% (May 18, 5:00 AM)30.15 "Hg (May 18, 5:00 AM)
Low61 °F (May 17, 4:30 AM)45% (May 22, 2:00 PM)29.89 "Hg (May 19, 1:30 PM)
Average72 °F76%30.00 "Hg
* Reported May 16 3:00 PM — May 31 3:30 PM, Noumea, Weather by CustomWeather, © 2016

Note: Actual official high and low records may vary slightly from our data, if they occured in-between our weather recording intervals... More about our weather records

Advertising

Noumea Weather History for the Previous 24 Hours

Scroll right to see more
 ConditionsComfort  
Time TempWeatherWind HumidityBarometerVisibility
3:30 PM
Tue, May 31
77 °FSunny.12 mph54%30.07 "Hg10 mi
3:00 PM77 °FPassing clouds.12 mph51%30.07 "HgN/A
2:30 PM79 °FPassing clouds.10 mph51%30.07 "HgN/A
2:00 PM79 °FPassing clouds.12 mph51%30.07 "HgN/A
1:30 PM79 °FPassing clouds.13 mph54%30.07 "HgN/A
1:00 PM79 °FPassing clouds.12 mph51%30.07 "HgN/A
12:30 PM77 °FPassing clouds.12 mph54%30.07 "HgN/A
12:00 PM79 °FPassing clouds.12 mph54%30.09 "HgN/A
11:00 AM77 °FPartly sunny.10 mph57%30.12 "HgN/A
10:30 AM79 °FPartly sunny.10 mph51%30.12 "HgN/A
10:00 AM77 °FScattered clouds.12 mph57%30.15 "HgN/A
9:30 AM75 °FBroken clouds.9 mph61%30.15 "HgN/A
9:00 AM75 °FSunny.2 mph65%30.15 "HgN/A
8:30 AM72 °FSunny.2 mph73%30.15 "HgN/A
8:00 AM70 °FScattered clouds.3 mph78%30.15 "HgN/A
7:30 AM68 °FScattered clouds.No wind83%30.12 "HgN/A
7:00 AM64 °FSunny.No wind88%30.12 "HgN/A
6:30 AM64 °FSunny.2 mph88%30.09 "HgN/A
6:00 AM66 °FSunny.No wind88%30.09 "Hg10 mi
5:30 AM64 °FSunny.1 mph94%30.09 "Hg10 mi
5:00 AM64 °FClear.1 mph94%30.09 "Hg10 mi
4:30 AM66 °FClear.No wind83%30.09 "Hg10 mi
4:00 AM64 °FClear.3 mph94%30.09 "Hg10 mi
3:30 AM64 °FClear.No wind88%30.09 "Hg10 mi
3:00 AM66 °FClear.No wind83%30.09 "Hg10 mi
2:30 AM68 °FClear.1 mph83%30.09 "Hg10 mi
2:00 AM68 °FClear.1 mph83%30.09 "Hg10 mi
1:30 AM68 °FPassing clouds.2 mph83%30.09 "HgN/A
1:00 AM68 °FPartly cloudy.3 mph88%30.12 "HgN/A
12:30 AM68 °FOvercast.1 mph83%30.12 "HgN/A
12:00 AM68 °FPassing clouds.No wind88%30.12 "HgN/A
11:30 PM
Mon, May 30
68 °FPassing clouds.2 mph83%30.12 "HgN/A
11:00 PM68 °FPassing clouds.3 mph88%30.12 "HgN/A
10:00 PM70 °FPassing clouds.1 mph83%30.12 "HgN/A
9:30 PM72 °FClear.5 mph78%30.12 "Hg10 mi
9:00 PM72 °FPartly cloudy.3 mph78%30.12 "HgN/A
8:30 PM72 °FOvercast.6 mph78%30.12 "HgN/A
8:00 PM72 °FMostly cloudy.1 mph78%30.12 "HgN/A
7:30 PM72 °FMostly cloudy.3 mph78%30.09 "HgN/A
7:00 PM73 °FMostly cloudy.6 mph74%30.09 "HgN/A
6:30 PM73 °FMostly cloudy.5 mph78%30.09 "HgN/A
6:00 PM73 °FOvercast.5 mph78%30.09 "HgN/A
5:30 PM73 °FOvercast.8 mph78%30.07 "HgN/A
5:00 PM73 °FOvercast.9 mph74%30.07 "HgN/A
4:30 PM73 °FOvercast.10 mph78%30.07 "HgN/A
4:00 PM75 °FPartly sunny.12 mph74%30.04 "HgN/A
Weather by CustomWeather, © 2016

See weather overviewHow to use our weather pages